Zurück zum Katalog

STARLINK-33934

AktivKommunikationVLEO
NORAD 64187·PAYLOAD·🇺🇸 United States

Gestartet May 28, 2025 von Cape Canaveral Space Force Station

Loading…

Nächste Überflüge (nächste 24 Stunden)

TLE

AktuellSource: CelesTrak SupGP

Epoche: Sep 14, 2026, 15:34 UTC

1 64187C 25113T   26257.64909722  .00002463  00000+0  72767-4 0  2573
2 64187  53.1575 292.9871 0001287  86.8682 212.9628 15.34385466    14

Verfolge STARLINK-33934 in Echtzeit mit AllMySat

Download on the App Store